SCP
0 0 0 -0 -0 -0 0 0 0 0 0 0 0 0 0 0 0 0 0 -0 -0 -0 -0 -0 -0 -0 -1 -0 -1 -0 -0 -0 -0 0 0 0 -0 -0 0 -0 0 0 -0 0 0 0 0 0 0
0 0 -0 0 0 0 0 0 0 0 0 0 0 0 0 0 0 0 0 -0 -0 -0 -0 -0 -0 -0 -0 -1 -1 -0 -0 -0 -0 -0 -0 0 -0 -0 0 0 0 0 0 0 0 0 0 0 0
-0 0 -0 0 0 0 0 0 0 0 0 0 0 0 0 0 0 0 0 0 -0 -0 -0 -0 -0 -0 -0 -0 -0 -0 -0 -0 -0 -0 -0 -0 -0 0 0 0 0 0 0 0 0 0 0 0 0
-0 0 -0 0 0 0 0 0 0 0 0 0 0 0 0 0 0 0 0 0 0 -0 -0 -0 -0 -0 -0 -0 -0 -0 -0 -0 -0 -0 -0 -0 -0 -0 0 0 0 0 0 0 0 0 0 0 0
0 0 0 0 0 0 0 0 0 0 0 0 0 0 0 0 0 0 0 0 0 -0 0 -0 -0 -0 -0 -0 -0 -0 -0 -0 -0 -0 -0 -0 -0 -0 0 0 0 0 0 0 0 0 0 0 0
0 0 0 0 0 0 0 0 0 0 0 0 0 0 0 0 0 0 0 0 0 0 0 -0 -0 -0 -0 -0 -0 0 0 0 -0 -0 -0 0 0 0 0 0 0 0 0 0 0 0 0 0 0
0 0 0 0 0 0 0 0 0 0 0 0 0 0 0 0 0 0 0 0 0 0 0 0 0 -0 -0 -0 -0 -0 0 0 0 0 0 0 0 0 0 0 0 0 0 0 0 0 0 0 0
0 0 0 0 0 0 0 0 0 0 0 0 0 0 0 0 0 0 0 0 0 0 0 0 0 0 0 0 -0 -0 -0 -0 0 0 0 0 0 0 0 0 0 0 0 0 0 0 0 0 0
0 0 0 0 0 0 0 0 0 0 0 0 0 0 0 0 0 0 0 0 0 0 0 0 0 0 0 0 0 -0 -0 -0 -0 0 0 0 0 0 0 0 0 0 0 0 0 0 0 0 0
0 0 0 0 0 0 0 0 0 0 0 0 0 0 0 0 0 0 0 0 0 0 0 0 0 0 0 0 0 0 0 0 0 0 0 0 0 0 0 0 0 0 0 0 0 0 0 0 0
0 0 0 0 0 0 0 0 0 0 0 0 0 0 0 0 0 0 0 0 0 0 0 0 0 0 0 0 0 0 0 0 0 0 0 0 0 0 0 0 0 0 0 0 0 0 0 0 0
0 0 0 0 0 0 0 0 0 0 0 0 0 0 0 0 0 0 0 0 0 0 0 0 0 0 0 0 0 0 0 0 0 0 0 0 0 0 0 0 0 0 0 0 0 0 0 0 0
0 0 0 0 0 0 0 0 0 0 0 0 0 0 0 0 0 0 0 0 0 0 0 0 0 0 0 0 0 0 0 0 0 0 0 0 0 0 0 0 0 0 0 0 0 0 0 0 0
0 0 0 0 0 0 0 0 0 0 0 0 0 0 0 0 0 0 0 0 0 0 0 0 0 0 0 0 0 0 0 0 0 0 0 0 0 0 0 0 0 0 0 0 0 0 0 0 0
0 0 0 0 0 0 0 0 0 0 0 0 0 0 0 0 0 0 0 0 0 0 0 0 0 0 0 0 0 0 0 0 0 0 0 0 0 0 0 0 0 0 0 0 0 0 0 0 0
0 0 0 0 0 0 0 0 0 0 0 0 0 0 0 0 0 0 0 0 0 0 0 0 0 0 0 0 0 0 0 0 0 0 0 0 0 0 0 0 0 0 0 0 0 0 0 0 0
0 0 0 0 0 0 0 0 0 0 0 0 0 0 0 0 0 0 0 0 0 0 0 0 0 0 0 0 0 0 0 0 0 0 0 0 0 0 0 0 0 0 0 0 0 0 0 0 0
0 0 0 0 0 0 0 0 0 0 0 0 0 0 0 0 0 0 0 0 0 0 0 0 0 0 0 0 0 0 0 0 0 0 0 0 0 0 0 0 0 0 0 0 0 0 0 0 0
0 0 0 0 0 0 0 0 0 0 0 0 0 0 0 0 0 0 0 0 0 0 0 0 0 0 0 0 0 0 0 0 0 0 0 0 0 0 0 0 0 0 0 0 0 0 0 0 0
0 0 0 0 0 0 0 0 0 -0 0 0 0 0 0 0 0 0 0 0 0 0 0 0 0 0 0 0 0 0 0 0 0 0 0 0 0 0 0 0 0 0 0 0 0 0 0 0 0
0 0 0 0 0 0 0 0 0 0 0 0 0 0 0 0 0 0 0 0 0 0 0 0 0 0 0 0 0 0 0 0 0 0 0 0 0 0 0 0 0 0 0 0 0 0 0 0 0
0 0 0 0 0 0 0 0 0 0 0 0 0 0 0 0 0 0 0 0 0 0 0 0 0 0 0 0 0 0 0 0 0 0 0 0 0 0 0 0 0 0 0 0 0 0 0 0 0
0 0 0 0 0 0 0 0 -0 0 0 0 0 0 0 0 0 0 0 0 0 0 0 0 0 0 0 0 0 0 0 0 0 0 0 0 0 0 0 0 0 0 0 0 0 0 0 0 0
0 0 0 0 0 0 0 0 0 0 0 0 0 0 0 0 0 0 0 0 0 0 0 0 0 0 0 0 0 0 0 0 0 0 0 0 0 0 0 0 0 0 0 0 0 0 0 0 0
0 0 0 0 0 0 0 0 0 0 0 0 0 0 0 0 0 0 0 0 0 0 0 0 0 0 0 0 0 0 0 0 0 0 0 0 0 0 0 0 0 0 0 0 0 0 0 0 0
0 0 0 0 0 0 0 0 0 0 0 0 0 0 0 0 0 0 0 0 0 0 0 -0 -0 -0 -0 -0 0 0 0 0 0 0 0 0 0 0 0 0 0 0 0 0 0 0 0 0 0
0 0 0 0 0 0 0 0 0 0 0 0 0 0 0 0 0 0 0 -0 -0 -0 -0 -0 -0 -0 -0 -0 -0 -0 -0 -0 0 0 0 0 0 0 0 0 0 0 0 0 0 0 0 0 0
0 0 0 0 0 0 0 0 0 0 0 0 0 0 0 0 0 0 -0 -0 -0 -0 -0 -0 -0 -0 -0 -0 -0 -0 -0 -0 -0 -0 0 0 0 0 0 0 0 0 0 0 0 0 0 0 0
0 0 0 0 0 0 0 0 0 0 0 0 -0 -0 0 0 0 0 0 -0 -0 -0 -0 -0 -0 -0 -0 -0 0 0 0 -0 -0 -0 -0 -0 -0 0 0 0 0 0 0 0 0 0 0 0 0
0 0 0 0 0 0 0 0 0 0 0 0 0 0 0 0 -0 -0 -0 -0 -0 0 0 0 0 0 0 -0 -0 -0 -0 -0 -0 -0 -0 -0 -0 -0 -0 -0 -0 0 0 0 0 0 0 0 0
Wind_Speed_500mb
15 12 7 7 8 10 8 5 6 10 6 3 3 2 6 7 5 6 7 7 7 14 30 39 38 38 37 36 34 33 29 26 23 20 19 17 18 21 22 19 11 9 8 4 5 6 7 6 4
11 5 4 2 8 6 9 2 6 8 7 3 3 1 2 1 5 7 7 11 8 10 27 39 39 39 38 37 34 33 29 26 24 22 18 18 19 18 22 22 17 14 11 8 8 7 6 5 4
6 4 5 7 6 6 5 5 4 4 10 3 3 4 4 6 5 3 4 9 15 14 22 37 40 40 39 37 35 34 32 30 25 22 21 23 21 17 21 22 17 16 12 10 9 8 6 4 2
7 3 4 7 5 5 5 2 6 6 3 3 1 8 4 5 5 5 2 9 17 17 21 28 41 42 40 38 38 35 33 32 30 29 27 26 29 21 17 20 18 16 13 14 12 9 6 4 4
11 2 6 4 9 5 7 9 8 2 8 4 4 7 15 9 4 4 4 5 13 19 23 24 37 42 42 41 39 37 35 34 32 31 30 28 34 23 19 20 20 17 17 16 12 10 7 5 5
8 3 7 3 9 6 6 12 3 5 3 6 6 6 5 7 7 1 5 3 9 19 22 26 30 40 43 43 42 40 38 36 33 34 32 29 33 21 20 21 21 20 20 18 15 12 12 10 9
2 6 6 7 10 11 4 11 6 5 15 8 4 1 6 9 12 5 6 8 7 17 25 28 30 35 42 46 45 43 41 39 38 41 38 37 34 24 22 24 23 23 22 19 17 14 13 12 11
5 7 7 7 6 10 12 9 3 2 8 15 4 4 5 10 14 15 19 22 16 19 24 28 33 36 42 48 49 47 45 44 45 46 46 44 43 36 28 27 26 25 24 21 18 18 17 15 14
1 7 4 8 12 12 10 11 7 5 16 24 18 29 34 41 32 27 30 28 26 25 29 31 33 37 40 49 49 46 47 47 48 52 52 52 45 37 34 29 28 28 27 24 23 22 20 19 18
7 6 11 6 2 7 12 9 18 10 31 39 42 26 15 25 41 36 38 37 33 32 35 36 37 36 38 45 49 48 48 50 54 57 55 52 49 42 38 32 32 32 31 28 26 25 24 23 22
10 10 7 20 29 14 12 26 17 15 15 44 40 29 40 33 25 38 42 43 43 35 35 36 36 38 39 42 46 52 54 55 57 59 59 56 56 50 43 39 38 37 36 32 31 29 30 29 27
7 25 31 22 30 16 14 13 17 31 58 58 55 48 41 40 38 41 43 45 45 38 34 35 38 37 40 42 45 45 51 56 60 61 61 61 60 58 51 46 42 41 39 37 35 33 36 33 30
9 9 11 25 32 43 32 22 25 45 54 39 35 33 31 26 38 38 36 37 34 35 35 35 39 41 38 41 47 48 49 51 53 57 60 63 64 62 58 53 48 44 42 40 39 39 40 38 37
12 14 22 31 52 53 24 17 9 32 31 32 29 31 26 39 46 52 36 37 35 35 33 33 37 37 39 37 42 50 52 54 54 54 53 52 56 59 61 56 52 49 47 44 43 42 43 42 41
11 10 17 35 37 16 16 10 17 24 18 32 39 46 55 39 27 13 7 17 30 31 29 25 24 30 38 40 36 43 50 55 57 56 51 49 49 52 56 54 54 53 52 51 49 48 50 50 49
7 3 7 12 8 1 8 16 18 24 33 54 55 48 33 34 22 16 11 7 6 16 18 10 10 17 26 35 37 36 43 49 50 49 50 48 48 47 51 52 55 57 59 57 55 53 54 55 56
5 7 11 13 3 5 5 11 26 38 44 48 48 39 22 40 35 31 21 11 4 3 9 11 13 7 14 23 29 31 33 40 45 44 48 49 51 50 50 55 56 57 61 62 60 60 60 60 60
11 7 8 7 9 1 10 19 19 47 55 34 41 14 48 45 41 29 25 25 18 13 10 12 15 14 5 10 20 26 28 29 34 40 43 48 50 52 54 55 57 57 62 66 66 65 64 64 60
7 9 10 10 16 12 19 13 18 52 46 31 36 73 53 53 44 41 40 36 34 31 25 20 11 9 3 5 2 12 20 25 28 30 35 42 46 50 53 55 57 60 63 65 66 66 67 68 65
14 12 11 10 10 6 15 17 32 34 18 5 63 50 49 49 48 48 48 47 51 51 48 37 29 21 17 13 12 7 2 5 10 17 24 28 33 42 49 52 52 54 59 65 69 70 71 71 70
8 9 7 12 7 11 10 13 14 15 45 61 55 55 49 48 50 48 49 51 49 51 52 49 44 38 31 22 14 11 7 4 6 9 14 20 24 29 35 41 47 50 54 59 64 70 72 76 77
8 14 9 7 5 6 6 9 16 5 25 28 36 50 48 46 47 47 48 51 53 52 48 47 45 42 40 35 30 27 25 23 21 23 24 23 22 20 24 27 33 42 47 53 56 59 66 72 81
12 3 5 5 5 4 11 3 14 16 11 13 23 43 46 45 42 43 44 44 42 39 39 37 35 34 33 31 30 28 27 26 25 23 23 23 23 28 24 26 34 36 43 49 50 55 61 68 75
9 5 6 4 6 1 11 11 10 7 15 14 24 42 42 39 39 38 36 35 38 37 35 35 32 31 30 30 29 31 29 27 26 27 29 31 28 24 28 32 34 37 40 44 50 53 59 66 74
7 9 6 7 2 9 6 4 12 11 13 34 35 44 41 34 34 33 35 37 38 41 41 38 34 31 28 26 27 28 30 31 32 35 39 42 42 37 31 35 41 44 44 48 50 53 59 66 78
12 13 8 10 6 9 15 9 6 20 48 49 51 45 35 31 26 28 29 31 33 32 33 35 39 39 37 34 29 24 25 27 27 29 34 40 44 47 46 44 42 44 50 56 54 57 58 63 74
8 8 5 3 4 6 8 5 11 20 23 32 36 35 29 23 17 18 19 19 20 24 28 32 35 38 39 42 42 43 34 28 28 27 30 35 40 44 47 48 50 49 48 51 53 58 62 65 70
3 4 2 4 2 7 7 7 8 17 19 16 20 24 15 8 6 10 16 18 18 21 26 30 34 38 41 43 45 45 45 50 49 43 40 41 42 44 48 51 52 53 53 52 52 55 59 63 70
4 1 3 6 8 8 4 9 3 24 18 16 20 17 10 2 3 10 13 15 17 23 33 35 38 42 49 54 55 55 56 58 59 58 58 57 55 53 52 53 55 56 59 58 57 55 56 63 66
9 7 10 7 7 5 1 18 17 23 27 23 18 20 12 8 4 8 17 17 22 28 39 44 45 49 54 58 59 62 61 62 68 70 70 70 71 69 65 61 59 56 57 59 61 62 59 59 65
Wind_Direction_500mb
320 312 307 358 51 64 296 285 82 32 48 65 356 37 223 240 207 210 165 200 234 185 185 188 190 194 196 194 191 188 188 188 190 190 180 169 178 182 195 211 207 224 242 281 306 311 322 322 327
338 352 15 5 88 73 280 101 127 156 153 331 277 189 273 38 123 148 164 178 223 207 195 194 195 197 199 200 200 199 200 200 198 192 192 194 196 195 205 220 224 232 254 264 273 288 305 310 312
42 2 3 104 122 151 184 18 127 137 150 89 343 276 291 140 149 222 197 180 209 224 203 200 199 201 204 203 203 204 206 206 204 203 201 219 232 215 220 224 235 245 258 266 275 287 292 285 258
23 22 260 85 232 260 118 16 47 26 99 86 147 301 232 237 280 269 269 195 213 218 212 204 206 205 207 208 207 207 209 208 207 205 214 227 251 247 224 225 235 249 262 275 286 286 279 241 180
10 330 35 348 280 181 101 87 57 349 307 186 160 290 309 228 219 326 324 234 222 224 217 211 212 211 211 212 213 213 210 209 210 214 214 220 245 240 218 224 231 242 251 260 266 264 253 224 183
351 350 35 286 295 289 119 127 60 320 282 173 201 271 285 221 184 133 358 338 226 224 226 222 215 217 218 218 219 218 215 215 214 216 215 218 237 238 230 228 233 245 255 258 243 232 221 209 198
41 71 232 294 287 328 145 109 82 359 351 2 327 316 314 221 228 230 321 328 266 237 233 231 229 224 222 223 223 225 222 220 215 218 219 219 241 249 234 229 236 246 251 249 247 238 222 212 211
336 92 302 279 294 274 174 131 153 302 269 300 253 277 294 325 298 278 292 304 283 252 251 244 235 231 231 225 224 224 223 223 221 224 228 230 249 255 244 232 237 243 245 243 238 228 221 218 223
277 59 264 261 8 307 25 14 31 293 266 279 282 272 285 289 282 282 295 290 277 258 252 257 250 237 233 228 229 225 223 224 223 226 230 239 257 250 246 235 238 241 240 239 236 229 223 222 226
131 132 232 163 145 310 315 12 334 324 303 286 289 285 306 328 273 282 293 295 286 271 260 256 257 250 236 230 230 230 227 224 226 229 236 244 258 259 252 246 246 246 244 242 237 231 228 231 236
190 200 225 300 326 320 318 321 328 324 282 279 287 300 305 310 285 273 279 283 294 291 259 259 262 258 249 238 233 232 232 233 234 235 239 245 255 263 256 248 249 249 248 245 240 233 232 234 237
215 230 246 277 308 305 299 290 294 272 269 287 290 294 291 290 292 289 287 286 279 282 289 265 269 264 258 250 243 238 236 236 237 240 244 248 252 260 260 253 249 249 247 245 245 237 237 239 240
214 243 294 295 288 287 287 271 271 277 294 307 301 293 304 301 307 305 289 283 281 273 279 279 261 265 263 252 247 246 244 240 241 245 249 252 254 258 262 258 256 254 251 249 246 241 241 240 242
300 319 304 300 283 274 263 271 313 285 320 316 302 307 327 322 314 310 288 284 277 283 284 284 270 263 271 268 254 248 249 251 251 252 255 255 254 257 261 256 257 254 255 254 254 250 247 245 245
317 328 309 268 273 226 217 307 230 286 311 307 306 312 320 330 342 41 49 259 255 249 260 274 282 273 263 267 267 254 247 250 255 260 263 261 260 259 262 257 259 261 260 257 252 248 246 245 246
312 347 301 285 156 239 138 261 264 278 300 299 303 311 329 87 75 72 77 116 162 229 228 192 278 286 276 268 268 265 254 251 255 260 265 266 264 263 265 264 264 266 261 258 257 255 252 248 247
276 233 214 307 347 122 178 250 264 293 290 287 299 311 90 88 79 65 62 71 84 204 237 207 158 259 287 268 265 263 258 256 257 256 259 266 272 273 271 269 269 267 265 262 261 259 257 255 252
226 216 276 253 271 275 228 247 271 283 287 291 299 351 100 87 73 73 70 71 85 106 125 144 153 156 194 246 252 255 257 259 256 258 260 264 267 269 271 271 270 267 264 263 261 261 260 259 254
266 270 259 266 281 299 280 288 285 275 282 298 315 118 102 86 81 78 77 75 74 79 87 95 120 106 117 141 160 244 257 263 270 269 269 273 273 273 273 274 272 270 267 267 265 263 260 257 251
227 244 264 277 280 326 287 297 277 288 287 14 116 97 96 92 84 73 73 71 69 67 69 71 68 67 67 75 86 73 330 280 296 282 280 279 278 278 280 280 279 276 273 270 266 263 259 255 249
279 240 238 254 297 279 304 301 291 54 77 83 88 101 93 86 84 77 72 68 66 62 60 59 59 58 55 50 40 41 46 19 288 279 275 277 280 283 283 282 281 280 278 276 275 271 265 261 252
254 248 222 245 83 236 60 277 291 55 84 73 84 93 93 87 82 77 70 68 62 58 55 52 50 50 50 48 46 39 31 20 2 334 325 313 297 291 296 297 288 282 279 276 276 276 273 268 261
228 99 166 195 194 45 287 108 268 118 87 99 91 91 89 85 81 70 60 56 54 49 43 39 35 34 34 29 25 22 23 19 8 355 342 328 314 298 290 299 299 292 285 281 278 274 270 269 265
146 34 310 95 118 71 267 168 287 162 172 125 103 96 88 81 77 68 58 45 37 32 28 27 23 19 11 6 3 360 357 352 343 338 335 337 334 315 296 288 283 284 287 283 279 277 274 270 268
85 75 314 351 17 222 189 56 246 10 86 125 119 103 96 85 69 54 37 28 22 17 12 13 16 20 16 8 1 352 346 343 341 340 336 330 326 323 316 302 289 282 280 276 276 273 270 269 268
171 173 170 222 212 230 11 253 323 104 98 104 104 105 98 84 65 50 37 25 20 21 19 17 17 16 17 16 15 11 2 352 350 347 339 333 328 324 321 315 311 302 288 276 268 269 270 268 266
177 174 191 169 50 60 209 266 105 110 104 111 110 105 100 92 62 37 31 34 33 30 28 25 21 19 16 13 10 9 5 356 358 354 338 327 322 319 318 317 313 310 307 293 278 269 266 268 269
108 152 47 14 296 257 262 238 216 163 142 125 116 120 121 107 75 40 18 18 24 23 24 18 15 10 6 2 359 356 351 348 349 347 339 331 324 318 315 312 311 310 309 306 301 289 277 270 267
38 200 194 167 167 196 254 249 197 143 149 142 163 177 182 157 318 334 349 349 1 5 1 357 356 358 355 352 348 345 342 339 336 333 331 328 326 324 320 316 311 309 309 308 306 303 297 285 274
180 213 171 171 238 243 228 252 152 144 153 161 194 190 189 171 193 308 323 329 335 335 337 337 335 334 336 339 337 335 334 333 330 326 323 322 320 319 317 314 310 309 306 304 305 306 303 297 291
Wind_Speed_850mb
15 12 7 7 8 10 8 5 6 10 6 3 3 2 6 7 5 6 7 7 7 14 30 39 38 38 37 36 34 33 29 26 23 20 19 17 18 21 22 19 11 9 8 4 5 6 7 6 4
11 5 4 2 8 6 9 2 6 8 7 3 3 1 2 1 5 7 7 11 8 10 27 39 39 39 38 37 34 33 29 26 24 22 18 18 19 18 22 22 17 14 11 8 8 7 6 5 4
6 4 5 7 6 6 5 5 4 4 10 3 3 4 4 6 5 3 4 9 15 14 22 37 40 40 39 37 35 34 32 30 25 22 21 23 21 17 21 22 17 16 12 10 9 8 6 4 2
7 3 4 7 5 5 5 2 6 6 3 3 1 8 4 5 5 5 2 9 17 17 21 28 41 42 40 38 38 35 33 32 30 29 27 26 29 21 17 20 18 16 13 14 12 9 6 4 4
11 2 6 4 9 5 7 9 8 2 8 4 4 7 15 9 4 4 4 5 13 19 23 24 37 42 42 41 39 37 35 34 32 31 30 28 34 23 19 20 20 17 17 16 12 10 7 5 5
8 3 7 3 9 6 6 12 3 5 3 6 6 6 5 7 7 1 5 3 9 19 22 26 30 40 43 43 42 40 38 36 33 34 32 29 33 21 20 21 21 20 20 18 15 12 12 10 9
2 6 6 7 10 11 4 11 6 5 15 8 4 1 6 9 12 5 6 8 7 17 25 28 30 35 42 46 45 43 41 39 38 41 38 37 34 24 22 24 23 23 22 19 17 14 13 12 11
5 7 7 7 6 10 12 9 3 2 8 15 4 4 5 10 14 15 19 22 16 19 24 28 33 36 42 48 49 47 45 44 45 46 46 44 43 36 28 27 26 25 24 21 18 18 17 15 14
1 7 4 8 12 12 10 11 7 5 16 24 18 29 34 41 32 27 30 28 26 25 29 31 33 37 40 49 49 46 47 47 48 52 52 52 45 37 34 29 28 28 27 24 23 22 20 19 18
7 6 11 6 2 7 12 9 18 10 31 39 42 26 15 25 41 36 38 37 33 32 35 36 37 36 38 45 49 48 48 50 54 57 55 52 49 42 38 32 32 32 31 28 26 25 24 23 22
10 10 7 20 29 14 12 26 17 15 15 44 40 29 40 33 25 38 42 43 43 35 35 36 36 38 39 42 46 52 54 55 57 59 59 56 56 50 43 39 38 37 36 32 31 29 30 29 27
7 25 31 22 30 16 14 13 17 31 58 58 55 48 41 40 38 41 43 45 45 38 34 35 38 37 40 42 45 45 51 56 60 61 61 61 60 58 51 46 42 41 39 37 35 33 36 33 30
9 9 11 25 32 43 32 22 25 45 54 39 35 33 31 26 38 38 36 37 34 35 35 35 39 41 38 41 47 48 49 51 53 57 60 63 64 62 58 53 48 44 42 40 39 39 40 38 37
12 14 22 31 52 53 24 17 9 32 31 32 29 31 26 39 46 52 36 37 35 35 33 33 37 37 39 37 42 50 52 54 54 54 53 52 56 59 61 56 52 49 47 44 43 42 43 42 41
11 10 17 35 37 16 16 10 17 24 18 32 39 46 55 39 27 13 7 17 30 31 29 25 24 30 38 40 36 43 50 55 57 56 51 49 49 52 56 54 54 53 52 51 49 48 50 50 49
7 3 7 12 8 1 8 16 18 24 33 54 55 48 33 34 22 16 11 7 6 16 18 10 10 17 26 35 37 36 43 49 50 49 50 48 48 47 51 52 55 57 59 57 55 53 54 55 56
5 7 11 13 3 5 5 11 26 38 44 48 48 39 22 40 35 31 21 11 4 3 9 11 13 7 14 23 29 31 33 40 45 44 48 49 51 50 50 55 56 57 61 62 60 60 60 60 60
11 7 8 7 9 1 10 19 19 47 55 34 41 14 48 45 41 29 25 25 18 13 10 12 15 14 5 10 20 26 28 29 34 40 43 48 50 52 54 55 57 57 62 66 66 65 64 64 60
7 9 10 10 16 12 19 13 18 52 46 31 36 73 53 53 44 41 40 36 34 31 25 20 11 9 3 5 2 12 20 25 28 30 35 42 46 50 53 55 57 60 63 65 66 66 67 68 65
14 12 11 10 10 6 15 17 32 34 18 5 63 50 49 49 48 48 48 47 51 51 48 37 29 21 17 13 12 7 2 5 10 17 24 28 33 42 49 52 52 54 59 65 69 70 71 71 70
8 9 7 12 7 11 10 13 14 15 45 61 55 55 49 48 50 48 49 51 49 51 52 49 44 38 31 22 14 11 7 4 6 9 14 20 24 29 35 41 47 50 54 59 64 70 72 76 77
8 14 9 7 5 6 6 9 16 5 25 28 36 50 48 46 47 47 48 51 53 52 48 47 45 42 40 35 30 27 25 23 21 23 24 23 22 20 24 27 33 42 47 53 56 59 66 72 81
12 3 5 5 5 4 11 3 14 16 11 13 23 43 46 45 42 43 44 44 42 39 39 37 35 34 33 31 30 28 27 26 25 23 23 23 23 28 24 26 34 36 43 49 50 55 61 68 75
9 5 6 4 6 1 11 11 10 7 15 14 24 42 42 39 39 38 36 35 38 37 35 35 32 31 30 30 29 31 29 27 26 27 29 31 28 24 28 32 34 37 40 44 50 53 59 66 74
7 9 6 7 2 9 6 4 12 11 13 34 35 44 41 34 34 33 35 37 38 41 41 38 34 31 28 26 27 28 30 31 32 35 39 42 42 37 31 35 41 44 44 48 50 53 59 66 78
12 13 8 10 6 9 15 9 6 20 48 49 51 45 35 31 26 28 29 31 33 32 33 35 39 39 37 34 29 24 25 27 27 29 34 40 44 47 46 44 42 44 50 56 54 57 58 63 74
8 8 5 3 4 6 8 5 11 20 23 32 36 35 29 23 17 18 19 19 20 24 28 32 35 38 39 42 42 43 34 28 28 27 30 35 40 44 47 48 50 49 48 51 53 58 62 65 70
3 4 2 4 2 7 7 7 8 17 19 16 20 24 15 8 6 10 16 18 18 21 26 30 34 38 41 43 45 45 45 50 49 43 40 41 42 44 48 51 52 53 53 52 52 55 59 63 70
4 1 3 6 8 8 4 9 3 24 18 16 20 17 10 2 3 10 13 15 17 23 33 35 38 42 49 54 55 55 56 58 59 58 58 57 55 53 52 53 55 56 59 58 57 55 56 63 66
9 7 10 7 7 5 1 18 17 23 27 23 18 20 12 8 4 8 17 17 22 28 39 44 45 49 54 58 59 62 61 62 68 70 70 70 71 69 65 61 59 56 57 59 61 62 59 59 65
Wind_Direction_850mb
320 312 307 358 51 64 296 285 82 32 48 65 356 37 223 240 207 210 165 200 234 185 185 188 190 194 196 194 191 188 188 188 190 190 180 169 178 182 195 211 207 224 242 281 306 311 322 322 327
338 352 15 5 88 73 280 101 127 156 153 331 277 189 273 38 123 148 164 178 223 207 195 194 195 197 199 200 200 199 200 200 198 192 192 194 196 195 205 220 224 232 254 264 273 288 305 310 312
42 2 3 104 122 151 184 18 127 137 150 89 343 276 291 140 149 222 197 180 209 224 203 200 199 201 204 203 203 204 206 206 204 203 201 219 232 215 220 224 235 245 258 266 275 287 292 285 258
23 22 260 85 232 260 118 16 47 26 99 86 147 301 232 237 280 269 269 195 213 218 212 204 206 205 207 208 207 207 209 208 207 205 214 227 251 247 224 225 235 249 262 275 286 286 279 241 180
10 330 35 348 280 181 101 87 57 349 307 186 160 290 309 228 219 326 324 234 222 224 217 211 212 211 211 212 213 213 210 209 210 214 214 220 245 240 218 224 231 242 251 260 266 264 253 224 183
351 350 35 286 295 289 119 127 60 320 282 173 201 271 285 221 184 133 358 338 226 224 226 222 215 217 218 218 219 218 215 215 214 216 215 218 237 238 230 228 233 245 255 258 243 232 221 209 198
41 71 232 294 287 328 145 109 82 359 351 2 327 316 314 221 228 230 321 328 266 237 233 231 229 224 222 223 223 225 222 220 215 218 219 219 241 249 234 229 236 246 251 249 247 238 222 212 211
336 92 302 279 294 274 174 131 153 302 269 300 253 277 294 325 298 278 292 304 283 252 251 244 235 231 231 225 224 224 223 223 221 224 228 230 249 255 244 232 237 243 245 243 238 228 221 218 223
277 59 264 261 8 307 25 14 31 293 266 279 282 272 285 289 282 282 295 290 277 258 252 257 250 237 233 228 229 225 223 224 223 226 230 239 257 250 246 235 238 241 240 239 236 229 223 222 226
131 132 232 163 145 310 315 12 334 324 303 286 289 285 306 328 273 282 293 295 286 271 260 256 257 250 236 230 230 230 227 224 226 229 236 244 258 259 252 246 246 246 244 242 237 231 228 231 236
190 200 225 300 326 320 318 321 328 324 282 279 287 300 305 310 285 273 279 283 294 291 259 259 262 258 249 238 233 232 232 233 234 235 239 245 255 263 256 248 249 249 248 245 240 233 232 234 237
215 230 246 277 308 305 299 290 294 272 269 287 290 294 291 290 292 289 287 286 279 282 289 265 269 264 258 250 243 238 236 236 237 240 244 248 252 260 260 253 249 249 247 245 245 237 237 239 240
214 243 294 295 288 287 287 271 271 277 294 307 301 293 304 301 307 305 289 283 281 273 279 279 261 265 263 252 247 246 244 240 241 245 249 252 254 258 262 258 256 254 251 249 246 241 241 240 242
300 319 304 300 283 274 263 271 313 285 320 316 302 307 327 322 314 310 288 284 277 283 284 284 270 263 271 268 254 248 249 251 251 252 255 255 254 257 261 256 257 254 255 254 254 250 247 245 245
317 328 309 268 273 226 217 307 230 286 311 307 306 312 320 330 342 41 49 259 255 249 260 274 282 273 263 267 267 254 247 250 255 260 263 261 260 259 262 257 259 261 260 257 252 248 246 245 246
312 347 301 285 156 239 138 261 264 278 300 299 303 311 329 87 75 72 77 116 162 229 228 192 278 286 276 268 268 265 254 251 255 260 265 266 264 263 265 264 264 266 261 258 257 255 252 248 247
276 233 214 307 347 122 178 250 264 293 290 287 299 311 90 88 79 65 62 71 84 204 237 207 158 259 287 268 265 263 258 256 257 256 259 266 272 273 271 269 269 267 265 262 261 259 257 255 252
226 216 276 253 271 275 228 247 271 283 287 291 299 351 100 87 73 73 70 71 85 106 125 144 153 156 194 246 252 255 257 259 256 258 260 264 267 269 271 271 270 267 264 263 261 261 260 259 254
266 270 259 266 281 299 280 288 285 275 282 298 315 118 102 86 81 78 77 75 74 79 87 95 120 106 117 141 160 244 257 263 270 269 269 273 273 273 273 274 272 270 267 267 265 263 260 257 251
227 244 264 277 280 326 287 297 277 288 287 14 116 97 96 92 84 73 73 71 69 67 69 71 68 67 67 75 86 73 330 280 296 282 280 279 278 278 280 280 279 276 273 270 266 263 259 255 249
279 240 238 254 297 279 304 301 291 54 77 83 88 101 93 86 84 77 72 68 66 62 60 59 59 58 55 50 40 41 46 19 288 279 275 277 280 283 283 282 281 280 278 276 275 271 265 261 252
254 248 222 245 83 236 60 277 291 55 84 73 84 93 93 87 82 77 70 68 62 58 55 52 50 50 50 48 46 39 31 20 2 334 325 313 297 291 296 297 288 282 279 276 276 276 273 268 261
228 99 166 195 194 45 287 108 268 118 87 99 91 91 89 85 81 70 60 56 54 49 43 39 35 34 34 29 25 22 23 19 8 355 342 328 314 298 290 299 299 292 285 281 278 274 270 269 265
146 34 310 95 118 71 267 168 287 162 172 125 103 96 88 81 77 68 58 45 37 32 28 27 23 19 11 6 3 360 357 352 343 338 335 337 334 315 296 288 283 284 287 283 279 277 274 270 268
85 75 314 351 17 222 189 56 246 10 86 125 119 103 96 85 69 54 37 28 22 17 12 13 16 20 16 8 1 352 346 343 341 340 336 330 326 323 316 302 289 282 280 276 276 273 270 269 268
171 173 170 222 212 230 11 253 323 104 98 104 104 105 98 84 65 50 37 25 20 21 19 17 17 16 17 16 15 11 2 352 350 347 339 333 328 324 321 315 311 302 288 276 268 269 270 268 266
177 174 191 169 50 60 209 266 105 110 104 111 110 105 100 92 62 37 31 34 33 30 28 25 21 19 16 13 10 9 5 356 358 354 338 327 322 319 318 317 313 310 307 293 278 269 266 268 269
108 152 47 14 296 257 262 238 216 163 142 125 116 120 121 107 75 40 18 18 24 23 24 18 15 10 6 2 359 356 351 348 349 347 339 331 324 318 315 312 311 310 309 306 301 289 277 270 267
38 200 194 167 167 196 254 249 197 143 149 142 163 177 182 157 318 334 349 349 1 5 1 357 356 358 355 352 348 345 342 339 336 333 331 328 326 324 320 316 311 309 309 308 306 303 297 285 274
180 213 171 171 238 243 228 252 152 144 153 161 194 190 189 171 193 308 323 329 335 335 337 337 335 334 336 339 337 335 334 333 330 326 323 322 320 319 317 314 310 309 306 304 305 306 303 297 291